This is the latest recevied weather packets stored in our database for station/object K8JCL-13. If no packets are shown the sender has not sent any weather packets the latest 1 day(s).
| Time | Temp. | Humidity | Pressure | Rain* | Wind** | Luminosity | Snow |
|---|---|---|---|---|---|---|---|
| 1836274832 | 21.67° C | 60% | 1018.7 hPa | 0 mm | 0 m/s | 0 W/m² | - |
| 1836274529 | 22.22° C | 59% | 1018.4 hPa | 0 mm | 0 m/s | 0 W/m² | - |
| 1836274383 | 21.67° C | 60% | 1018.7 hPa | 0 mm | 0 m/s | 0 W/m² | - |
| 1836274228 | 22.22° C | 59% | 1018.5 hPa | 0 mm | 0 m/s | 0 W/m² | - |
| 1836273923 | 22.22° C | 58% | 1018.8 hPa | 0 mm | 0 m/s | 0 W/m² | - |
| 1778051329 | 6.67° C | 99% | 1008.4 hPa | 0 mm | 0.45 m/s, 58° | 0 W/m² | - |
| 1778051026 | 6.67° C | 99% | 1008.3 hPa | 0 mm | 1.79 m/s, 21° | 0 W/m² | - |
| 1778050723 | 6.67° C | 99% | 1008.6 hPa | 0 mm | 0.89 m/s, 352° | 0 W/m² | - |
| 1778050421 | 7.22° C | 99% | 1008.4 hPa | 0 mm | 0.89 m/s, 333° | 0 W/m² | - |
| 1778050118 | 7.22° C | 99% | 1008 hPa | 1.27 mm | 1.34 m/s, 305° | 0 W/m² | - |
| 1778049813 | 7.22° C | 99% | 1008 hPa | 1.27 mm | 2.24 m/s, 342° | 0 W/m² | - |
| 1778049510 | 7.78° C | 99% | 1008.1 hPa | 1.78 mm | 1.34 m/s, 311° | 0 W/m² | - |
| 1778049208 | 7.78° C | 99% | 1008.1 hPa | 1.78 mm | 1.79 m/s, 48° | 0 W/m² | - |
| 1778048906 | 7.78° C | 99% | 1007.9 hPa | 1.78 mm | 1.34 m/s, 287° | 0 W/m² | - |
| 1778048603 | 7.78° C | 99% | 1007.8 hPa | 1.27 mm | 0.45 m/s, 345° | 0 W/m² | - |
| 1778048299 | 7.78° C | 99% | 1007.9 hPa | 3.05 mm | 0.45 m/s, 9° | 0 W/m² | - |
| 1778047996 | 7.78° C | 99% | 1008 hPa | 3.05 mm | 0.89 m/s, 27° | 0 W/m² | - |
| 1778047695 | 7.78° C | 99% | 1007.7 hPa | 3.05 mm | 1.79 m/s, 16° | 0 W/m² | - |
| 1778047392 | 7.78° C | 99% | 1007.6 hPa | 1.78 mm | 1.79 m/s, 10° | 0 W/m² | - |
| 1778047089 | 7.78° C | 99% | 1007.9 hPa | 1.78 mm | 1.79 m/s, 19° | 0 W/m² | - |
| 1778046786 | 7.78° C | 99% | 1007.8 hPa | 1.78 mm | 0.89 m/s, 51° | 0 W/m² | - |
| 1778046483 | 7.78° C | 99% | 1008 hPa | 1.27 mm | 0.45 m/s, 25° | 0 W/m² | - |
| 1778046179 | 7.78° C | 99% | 1007.8 hPa | 3.05 mm | 1.79 m/s, 30° | 0 W/m² | - |
| 1778045876 | 7.78° C | 99% | 1008.1 hPa | 3.05 mm | 1.79 m/s, 12° | 0 W/m² | - |
| 1778045575 | 7.78° C | 99% | 1008 hPa | 3.05 mm | 1.34 m/s, 48° | 0 W/m² | - |
* Rain latest hour (hover to see other rain measurements)
** Current wind speed in m/s (hover to see current wind gust speed)